Simultaneous Nadir Overpasses (SNOs) Predictions

Prediction of SNOs between NOAA-19 and TERRA Satellite Orbit:

Table of predicted SNOs for the next 14.0 days since TLE Epoch: 4/9/2022
Index Date (NOAA-19) Time (NOAA-19) Lat,Lon (NOAA-19) SZA (NOAA-19 ) Date (TERRA) Time (TERRA) Lat,Lon (TERRA) SZA (TERRA ) Distance(km) Time Diff (sec)
1 04/10/2022 04:33:57 -80.72, -32.88 105.51 04/10/2022 04:34:40 -80.71, -32.99 105.51 2.33 43
2 04/10/2022 05:24:51 80.71, 134.80 74.51 04/10/2022 05:24:06 80.71, 134.72 74.49 1.77 45
3 04/12/2022 10:57:57 -80.72,-128.87 106.32 04/12/2022 10:57:49 -80.71,-128.81 106.33 1.98 8
4 04/14/2022 16:30:51 80.72, -31.89 72.91 04/14/2022 16:31:30 80.73, -32.00 72.92 2.30 39
5 04/14/2022 17:21:56 -80.71, 135.44 107.10 04/14/2022 17:20:58 -80.70, 135.29 107.15 3.20 58
6 04/16/2022 22:04:05 -80.81, 61.56 108.10 04/16/2022 22:05:14 -80.68, 64.04 107.95 46.36 69
7 04/16/2022 22:54:51 80.72,-128.03 72.11 04/16/2022 22:54:39 80.71,-127.99 72.10 1.57 12
8 04/19/2022 04:27:56 -80.73, -31.34 108.66 04/19/2022 04:28:21 -80.72, -31.35 108.66 0.95 25
9 04/19/2022 05:18:50 80.72, 136.15 71.35 04/19/2022 05:17:47 80.72, 136.28 71.34 2.29 63
10 04/21/2022 10:00:50 80.73, 65.43 70.60 04/21/2022 10:02:01 80.75, 65.52 70.65 2.39 71



Historial Predications of SNOs between NOAA-19 and TERRA
